Regional Weather Roundup
Issued by NWS State College, PA

Home | Current Version | Previous Version | Graphics & Text | Print | Product List | Glossary Off
Versions: 1 2 3 4 5 6 7 8 9 10 11 12 13 14 15 16 17 18 19 20 21 22 23 24 25 26 27 28 29 30 31 32 33 34 35 36 37 38 39 40 41 42 43 44 45 46 47 48 49 50

000
ASUS41 KCTP 242203
RWRCTP

REGIONAL WEATHER ROUNDUP
NATIONAL WEATHER SERVICE STATE COLLEGE PA
600 PM EDT SUN MAY 24 2015

Note: "fair" indicates few or no clouds below 12,000 feet with no
significant weather and/or obstructions to visibility.

* = STATION THAT DOES NOT REPORT PRECIPITATION /E.G. RAIN...SNOW...ETC/
    THUNDER OR FOG.

PAZ002>004-007>009-013>016-020>023-029>032-242300-
WESTERN PENNSYLVANIA

CITY           SKY/WX    TMP DP  RH WIND       PRES   REMARKS
ERIE           CLOUDY    75  42  30 NW3       30.21F
MEADVILLE      CLOUDY    76  44  32 S7        30.23F
FRANKLIN*      CLOUDY    73  46  38 S8        30.25F
NEW CASTLE     FAIR      80  49  33 CALM      30.23F
BEAVER COUNTY  NOT AVBL
BUTLER*        PTSUNNY   75  41  29 S5        30.26S
PITTSBURGH INT PTSUNNY   80  36  20 S5        30.23F
PITTSBURGH     PTSUNNY   79  32  18 S3        30.23F
INDIANA*       SUNNY     77  43  29 W3        30.28F
LATROBE        PTSUNNY   79  39  24 VRB6      30.25F
WASHINGTON CO* MOSUNNY   79  45  29 SW7       30.25S
$$

PAZ004>006-010>012-017>019-024>028-033>037-041-042-045-046-049>053-242300-
CENTRAL PENNSYLVANIA

CITY           SKY/WX    TMP DP  RH WIND       PRES   REMARKS
BRADFORD       CLOUDY    73  42  32 SW7       30.26S
DUBOIS         PTSUNNY   74  45  35 SW7       30.26F
CLEARFIELD     PTSUNNY   76  42  29 SW8       30.26S
JOHNSTOWN      SUNNY     76  36  23 SW8       30.27F
ALTOONA        SUNNY     77  40  26 S10       30.27S
STATE COLLEGE  MOSUNNY   79  43  27 SW7       30.24S
WILLIAMSPORT   MOSUNNY   78  43  28 S10       30.20S
SELINSGROVE    SUNNY     81  44  27 S6        30.22F
FT INDIANTOWN  SUNNY     79  43  28 S10       30.24S HAZE
CAPITAL CITY   SUNNY     78  45  30 SW7       30.24F
HARRISBURG     PTSUNNY   81  46  29 S7        30.23F
YORK           SUNNY     78  47  33 S6        30.25F
$$

PAZ038>040-043-044-047-048-054-055-060>062-067>071-242300-
EASTERN PENNSYLVANIA

CITY           SKY/WX    TMP DP  RH WIND       PRES   REMARKS
SCRANTON       MOSUNNY   79  38  22 SW8       30.22F
MOUNT POCONO   MOSUNNY   74  31  20 SW8       30.26F
ALLENTOWN      SUNNY     81  40  23 SW10      30.22F
QUAKERTOWN*    CLEAR     79  41  25 S10       30.25F
READING        SUNNY     80  37  21 SW8       30.23F
LANCASTER      SUNNY     76  41  28 W5        30.25F
COATESVILLE    CLEAR     77  50  38 SW3       30.26F
POTTSTOWN      SUNNY     79  40  24 VRB7      30.25F
BLUE BELL      SUNNY     81  45  28 SW7       30.24F
DOYLESTOWN     SUNNY     78  34  20 W6        30.24F
WILLOW GROVE   NOT AVBL
NORTH PHILA    SUNNY     81  37  20 VRB6      30.25F
PHILADELPHIA   MOSUNNY   81  42  25 SW14      30.25F
$$



USA.gov is the U.S. government's official web portal to all federal, state and local government web resources and services.